Perpignan, Francia

8:52 PM CET en Febrero 19, 2019 (GMT +0100)
Rivesaltes

Tiempo Historia de LFMP - Febrero, 2019

Change the Weather History Date:

Lunes, Febrero 11, 2019

  Actual Average Record
Temperature  
Temperatura media 50 ° F -  
Temperatura máxima 54 ° F 56 ° F 73 ° F (2007)
Temperatura mínima 46 ° F 41 ° F 28 ° F (2012)
Degree Days  
Grados día de calefacción 15    
Moisture  
Punto de rocío 37 ° F    
Average Humidity 58    
Maximum Humidity 76    
Minimum Humidity 41    
Precipitación  
Precipitación 0.02 pul 0.06 pul - ()
Presión al nivel del mar  
Presión al nivel del mar 30.30 pul    
Viento  
Velocidad del viento 13 mph ()    
Velocidad máxima del viento 22 mph    
Max Gust Speed 34 mph    
Visibilidad 6.2 Millas    
Eventos Lluvia    
Averages and records for this station are not official NWS values.
T = Trace of Precipitation, MM = Missing Value Source: Averaged Metar Reports

Daily Weather History Graph

Daily Weather History Graph

Search for Another Location

Airport or City:

Astronomía

Feb. 11, 2019 Salida Puesta
Hora real 7:51 AM CET 6:14 PM CET
Crepúsculo civil 7:22 AM CET 6:43 PM CET
Crepúsculo náutico 6:49 AM CET 7:17 PM CET
Crepúsculo astronómico 6:16 AM CET 7:49 PM CET
Luna 11:09 AM CET (2/11) Sin puesta de luna
Horas de luz 11h 21m
Horas de luz
10h 22m
Creciente, 35% of the Moon is Illuminated
Feb 11
Creciente
Feb 12
Cuarto creciente
Feb 19
Luna llena
Feb 26
Cuarto menguante
Mar 6
Nueva

Hourly Weather History & Observations

Hora (CET) Temp. Vientos helados Punto de rocío Humedad Presión Visibilidad Wind Dir Velocidad del viento Velocidad de ráfagas Precip Eventos Condiciones
12:00 AM 50 ° F - 35 ° F 44% 30.20 pul 34 mi NO 12.7 mph - -   Despejado
12:00 AM 50.0 ° F - 35.6 ° F 58% 30.18 pul - NO 12.7 mph - N/A   Despejado
12:30 AM 50.0 ° F - 33.8 ° F 54% 30.18 pul - NO 12.7 mph - N/A   Despejado
1:00 AM 50 ° F - 34 ° F 41% 30.21 pul 34 mi ONO 15.0 mph - -   Despejado
1:00 AM 50.0 ° F - 33.8 ° F 54% 30.18 pul - ONO 15.0 mph - N/A   Despejado
1:30 AM 50.0 ° F - 33.8 ° F 54% 30.21 pul 6.2 mi ONO 17.3 mph - N/A   Parcialmente nublado
2:00 AM 50 ° F - 34 ° F 42% 30.21 pul 34 mi ONO 17.3 mph - -   Despejado
2:00 AM 50.0 ° F - 33.8 ° F 54% 30.18 pul 6.2 mi ONO 17.3 mph 28.8 mph N/A   Nubes dispersas
2:30 AM 50.0 ° F - 32.0 ° F 50% 30.18 pul 6.2 mi ONO 11.5 mph - N/A   Parcialmente nublado
3:00 AM 50.0 ° F - 32.0 ° F 50% 30.21 pul 6.2 mi NO 19.6 mph - N/A   Nubes dispersas
3:30 AM 50.0 ° F - 32.0 ° F 50% 30.21 pul 6.2 mi ONO 21.9 mph - N/A   Muy nublado
4:00 AM 51 ° F - 35 ° F 42% 30.22 pul 31 mi NO 15.0 mph - -   Despejado
4:00 AM 50.0 ° F - 35.6 ° F 58% 30.21 pul 6.2 mi NO 15.0 mph - N/A   Muy nublado
4:30 AM 46.4 ° F 40.4 ° F 39.2 ° F 76% 30.21 pul 6.2 mi NO 13.8 mph - N/A   Muy nublado
5:00 AM 48 ° F - 38 ° F 58% 30.23 pul 34 mi ONO 13.8 mph - - Lluvia Lluvia débil
5:00 AM 48.2 ° F - 37.4 ° F 66% 30.21 pul 6.2 mi ONO 13.8 mph - N/A Lluvia Lluvia débil
5:30 AM 48.2 ° F - 37.4 ° F 66% 30.21 pul 6.2 mi ONO 16.1 mph - N/A   Nubes dispersas
6:00 AM 48 ° F - 37 ° F 57% 30.24 pul 37 mi ONO 16.1 mph - -   Despejado
6:00 AM 48.2 ° F - 37.4 ° F 66% 30.21 pul 6.2 mi ONO 16.1 mph 29.9 mph N/A   Nubes dispersas
6:30 AM 48.2 ° F - 37.4 ° F 66% 30.21 pul 6.2 mi ONO 15.0 mph - N/A   Muy nublado
7:00 AM 49 ° F - 37 ° F 52% 30.24 pul 37 mi NO 16.1 mph - -   Despejado
7:00 AM 50.0 ° F - 37.4 ° F 62% 30.21 pul 6.2 mi NO 16.1 mph - N/A   Muy nublado
7:30 AM 50.0 ° F - 35.6 ° F 58% 30.21 pul 6.2 mi NO 17.3 mph 29.9 mph N/A   Nubes dispersas
8:00 AM 50.0 ° F - 35.6 ° F 58% 30.24 pul 6.2 mi NO 11.5 mph - N/A   Muy nublado
8:30 AM 50.0 ° F - 37.4 ° F 62% 30.27 pul 6.2 mi NO 9.2 mph - N/A   Muy nublado
9:00 AM 50.0 ° F - 39.2 ° F 66% 30.27 pul 6.2 mi NO 9.2 mph - N/A Lluvia Lluvia débil
9:30 AM 50.0 ° F - 37.4 ° F 62% 30.30 pul 6.2 mi NNO 11.5 mph - N/A Lluvia Lluvia débil
10:00 AM 49 ° F - 40 ° F 61% 30.31 pul 34 mi NO 17.3 mph - -   Despejado
10:00 AM 50.0 ° F - 39.2 ° F 66% 30.30 pul 6.2 mi NO 17.3 mph 29.9 mph N/A   Muy nublado
10:30 AM 50.0 ° F - 39.2 ° F 66% 30.30 pul 6.2 mi NO 11.5 mph - N/A   Muy nublado
11:00 AM 49 ° F - 43 ° F 72% 30.33 pul 6 mi NO 11.5 mph - - Lluvia Lluvia débil
11:00 AM 50.0 ° F - 42.8 ° F 76% 30.30 pul 6.2 mi NO 11.5 mph - N/A Lluvia Lluvia débil
11:30 AM 50.0 ° F - 39.2 ° F 66% 30.33 pul 6.2 mi NO 11.5 mph - N/A   Muy nublado
12:00 PM 51.8 ° F - 37.4 ° F 58% 30.33 pul 6.2 mi NO 18.4 mph 29.9 mph N/A   Muy nublado
12:30 PM 48.2 ° F - 41.0 ° F 76% 30.36 pul 6.2 mi NO 17.3 mph 32.2 mph N/A Lluvia Lluvia débil
1:00 PM 51 ° F - 40 ° F 56% 30.35 pul 34 mi NO 10.4 mph - -   Despejado
1:00 PM 50.0 ° F - 39.2 ° F 66% 30.33 pul 6.2 mi NO 10.4 mph - N/A   Muy nublado
1:30 PM 51.8 ° F - 37.4 ° F 58% 30.33 pul 6.2 mi NNO 12.7 mph 24.2 mph N/A   Muy nublado
2:00 PM 50.0 ° F - 41.0 ° F 71% 30.33 pul 6.2 mi Norte 16.1 mph - N/A Lluvia Lluvia débil
2:30 PM 50.0 ° F - 41.0 ° F 71% 30.33 pul 6.2 mi NNO 15.0 mph - N/A   Muy nublado
3:00 PM 50.0 ° F - 39.2 ° F 66% 30.33 pul 6.2 mi NO 21.9 mph 34.5 mph N/A   Nubes dispersas
3:30 PM 53.6 ° F - 37.4 ° F 54% 30.33 pul 6.2 mi NO 18.4 mph - N/A   Parcialmente nublado
4:00 PM 53.6 ° F - 37.4 ° F 54% 30.33 pul 6.2 mi NO 17.3 mph - N/A   Parcialmente nublado
4:30 PM 53.6 ° F - 35.6 ° F 51% 30.33 pul 6.2 mi NO 20.7 mph - N/A   Nubes dispersas
5:00 PM 53.6 ° F - 35.6 ° F 51% 30.33 pul 6.2 mi NO 15.0 mph - N/A   Muy nublado
5:30 PM 53.6 ° F - 35.6 ° F 51% 30.36 pul 6.2 mi NNO 12.7 mph - N/A   Muy nublado
6:00 PM 51 ° F - 36 ° F 46% 30.40 pul 37 mi ONO 10.4 mph - -   Despejado
6:00 PM 51.8 ° F - 35.6 ° F 54% 30.39 pul 6.2 mi ONO 10.4 mph - N/A   Muy nublado
6:30 PM 50.0 ° F - 35.6 ° F 58% 30.39 pul 6.2 mi ONO 8.1 mph - N/A   Nubes dispersas
7:00 PM 50 ° F - 36 ° F 48% 30.41 pul 37 mi NO 10.4 mph - -   Despejado
7:00 PM 50.0 ° F - 35.6 ° F 58% 30.39 pul 6.2 mi NO 10.4 mph - N/A   Parcialmente nublado
7:30 PM 50.0 ° F - 35.6 ° F 58% 30.39 pul 6.2 mi NO 11.5 mph - N/A   Parcialmente nublado
8:00 PM 50 ° F - 36 ° F 47% 30.43 pul 37 mi NNO 3.5 mph - -   Despejado
8:00 PM 50.0 ° F - 35.6 ° F 58% 30.42 pul - NNO 3.5 mph - N/A   Despejado
8:30 PM 50.0 ° F - 37.4 ° F 62% 30.42 pul 6.2 mi NNO 13.8 mph - N/A   Nubes dispersas
9:00 PM 50 ° F - 37 ° F 51% 30.42 pul 37 mi NO 19.6 mph - -   Despejado
9:00 PM 50.0 ° F - 37.4 ° F 62% 30.42 pul 6.2 mi NO 19.6 mph - N/A   Parcialmente nublado
9:30 PM 50.0 ° F - 37.4 ° F 62% 30.39 pul - NO 17.3 mph - N/A   Despejado
10:00 PM 50 ° F - 36 ° F 47% 30.45 pul 37 mi NNO 12.7 mph - -   Despejado
10:00 PM 50.0 ° F - 35.6 ° F 58% 30.45 pul - NNO 12.7 mph - N/A   Despejado
10:30 PM 50.0 ° F - 35.6 ° F 58% 30.45 pul 6.2 mi NNO 13.8 mph 25.3 mph N/A   Parcialmente nublado
11:00 PM 50.0 ° F - 35.6 ° F 58% 30.42 pul - NO 16.1 mph 31.1 mph N/A   Despejado
11:30 PM 50.0 ° F - 37.4 ° F 62% 30.45 pul 6.2 mi NNO 9.2 mph - N/A   Parcialmente nublado